Change the Weather History Date:

Wednesday, April 3, 2013

  Actual Average Record
Temperature  
Mean Temperature 38 °F 48 °F  
Max Temperature 51 °F 58 °F 87 °F (2011)
Min Temperature 25 °F 37 °F 11 °F (1975)
Degree Days  
Heating Degree Days 27 17  
Month to date heating degree days 88 53  
Since 1 July heating degree days 5449 5542  
Cooling Degree Days 0 0  
Month to date cooling degree days 0 0  
Year to date cooling degree days 0 1  
Moisture  
Dew Point 21 °F    
Average Humidity 57    
Maximum Humidity 81    
Minimum Humidity 32    
Precipitation  
Precipitation 0.00 in 0.07 in 1.33 in (1986)
Month to date precipitation T 0.22  
Sea Level Pressure  
Sea Level Pressure 30.35 in    
Wind  
Wind Speed 5 mph (East)    
Max Wind Speed 14 mph    
Max Gust Speed 17 mph    
Visibility 10 miles    
Events      
T = Trace of Precipitation, MM = Missing Value Source: NWS Daily Summary

Daily Weather History Graph

Daily Weather History Graph

Search for Another Location

Airport or City:

Trip Planner

Search our weather history database for the weather conditions in past years. The results will help you decide how hot, cold, wet, or windy it might be!

Date:

Astronomy

Apr. 03, 2013 Rise Set
Actual Time 6:55 AM CDT 7:42 PM CDT
Civil Twilight 6:27 AM CDT 8:10 PM CDT
Nautical Twilight 5:55 AM CDT 8:43 PM CDT
Astronomical Twilight 5:21 AM CDT 9:17 PM CDT
Moon 2:38 AM CDT (4/3) 12:53 PM CDT (4/3)
Length of Visible Light 13h 42m
Length of Day
12h 47m
Last Quarter, 44% of the Moon is Illuminated
Apr 3
Last Quarter
Apr 10
New
Apr 18
First Quarter
Apr 25
Full
May 2
Last Quarter

Hourly Weather History & Observations

Time (CDT) Temp. Windchill Dew Point Humidity Pressure Visibility Wind Dir Wind Speed Gust Speed Precip Events Conditions
12:53 AM 32.0 °F 26.4 °F 21.0 °F 64% 30.35 in 10.0 mi East 5.8 mph - N/A   Clear
1:53 AM 30.0 °F 24.1 °F 21.0 °F 69% 30.35 in 10.0 mi East 5.8 mph - N/A   Clear
2:53 AM 30.0 °F 26.5 °F 21.0 °F 69% 30.35 in 10.0 mi ENE 3.5 mph - N/A   Partly Cloudy
3:53 AM 27.0 °F 21.6 °F 21.0 °F 78% 30.36 in 10.0 mi East 4.6 mph - N/A   Clear
4:53 AM 27.0 °F 21.6 °F 19.9 °F 75% 30.35 in 10.0 mi ENE 4.6 mph - N/A   Clear
5:53 AM 28.0 °F - 21.0 °F 75% 30.38 in 10.0 mi Calm Calm - N/A   Clear
6:53 AM 26.1 °F 21.9 °F 21.0 °F 81% 30.40 in 10.0 mi East 3.5 mph - N/A   Clear
7:53 AM 28.0 °F 24.2 °F 21.0 °F 75% 30.41 in 10.0 mi East 3.5 mph - N/A   Clear
8:53 AM 30.9 °F 24.3 °F 21.0 °F 67% 30.43 in 10.0 mi ESE 6.9 mph - N/A   Clear
9:53 AM 35.1 °F 27.9 °F 19.9 °F 54% 30.42 in 10.0 mi East 9.2 mph - N/A   Clear
10:53 AM 37.9 °F 30.9 °F 19.9 °F 48% 30.42 in 10.0 mi ESE 10.4 mph - N/A   Clear
11:53 AM 41.0 °F 37.1 °F 21.0 °F 45% 30.41 in 10.0 mi Variable 5.8 mph - N/A   Clear
12:53 PM 45.0 °F 41.8 °F 21.9 °F 40% 30.38 in 10.0 mi East 5.8 mph - N/A   Clear
1:53 PM 48.9 °F - 23.0 °F 36% 30.35 in 10.0 mi East 8.1 mph - N/A   Clear
2:53 PM 48.0 °F - 21.9 °F 36% 30.34 in 10.0 mi Variable 4.6 mph - N/A   Clear
3:53 PM 48.0 °F - 21.0 °F 34% 30.33 in 10.0 mi Variable 3.5 mph - N/A   Clear
4:53 PM 50.0 °F - 21.0 °F 32% 30.30 in 10.0 mi SE 4.6 mph - N/A   Clear
5:53 PM 48.9 °F - 23.0 °F 36% 30.29 in 10.0 mi East 5.8 mph - N/A   Clear
6:53 PM 46.9 °F - 21.9 °F 37% 30.29 in 10.0 mi East 4.6 mph - N/A   Clear
7:53 PM 44.1 °F 41.5 °F 19.9 °F 38% 30.28 in 10.0 mi East 4.6 mph - N/A   Clear
8:53 PM 42.1 °F 39.2 °F 19.0 °F 40% 30.28 in 10.0 mi East 4.6 mph - N/A   Clear
9:53 PM 41.0 °F 39.0 °F 18.0 °F 40% 30.29 in 10.0 mi ESE 3.5 mph - N/A   Clear
10:53 PM 39.9 °F 36.7 °F 17.1 °F 40% 30.28 in 10.0 mi SSE 4.6 mph - N/A   Clear
11:53 PM 37.0 °F 33.3 °F 19.0 °F 48% 30.28 in 10.0 mi South 4.6 mph - N/A   Clear